Lancaster, OH

10:32 AM EDT on June 20, 2018 (GMT -0400)
Fairfield County

Weather History for KLHQ - December, 2010

Change the Weather History Date:

Sunday, December 26, 2010

  Actual Average Record
Temperature  
Mean Temperature 24 °F -  
Max Temperature 26 °F 34 °F 70 °F (2016)
Min Temperature 21 °F 17 °F -5 °F (1980)
Degree Days  
Heating Degree Days 42    
Moisture  
Dew Point 19 °F    
Average Humidity 79    
Maximum Humidity 88    
Minimum Humidity 69    
Precipitation  
Precipitation 0.00 in - - ()
Sea Level Pressure  
Sea Level Pressure 30.02 in    
Wind  
Wind Speed 8 mph (NNW)    
Max Wind Speed 18 mph    
Max Gust Speed 29 mph    
Visibility 6 miles    
Events Snow    
Averages and records for this station are not official NWS values.
T = Trace of Precipitation, MM = Missing Value Source: NWS Daily Summary

Daily Weather History Graph

Daily Weather History Graph

Search for Another Location

Airport or City:

Astronomy

Dec. 26, 2010 Rise Set
Actual Time 7:50 AM EST 5:12 PM EST
Civil Twilight 7:19 AM EST 5:42 PM EST
Nautical Twilight 6:46 AM EST 6:16 PM EST
Astronomical Twilight 6:13 AM EST 6:49 PM EST
Moon 11:38 PM EST (12/26) 11:11 AM EST (12/26)
Length of Visible Light 10h 22m
Length of Day
9h 21m
Waning Gibbous, 67% of the Moon is Illuminated
Dec 26
Waning Gibbous
Dec 27
Last Quarter
Jan 4
New
Jan 12
First Quarter
Jan 19
Full

Hourly Weather History & Observations

Time (EST) Temp. Windchill Dew Point Humidity Pressure Visibility Wind Dir Wind Speed Gust Speed Precip Events Conditions
12:53 AM 25.0 °F 20.7 °F 21.0 °F 85% 30.05 in 6.0 mi North 3.5 mph - 0.00 in   Overcast
1:53 AM 25.0 °F 18.1 °F 18.0 °F 75% 30.04 in 10.0 mi North 5.8 mph - N/A   Overcast
2:53 AM 24.1 °F 15.2 °F 18.0 °F 77% 30.04 in 10.0 mi North 8.1 mph - N/A   Overcast
3:53 AM 24.1 °F 15.2 °F 18.0 °F 77% 30.04 in 10.0 mi NNW 8.1 mph - N/A   Overcast
4:53 AM 23.0 °F 15.8 °F 18.0 °F 81% 30.03 in 7.0 mi North 5.8 mph - 0.00 in   Overcast
5:53 AM 23.0 °F 13.1 °F 18.0 °F 81% 30.03 in 10.0 mi North 9.2 mph - N/A   Overcast
6:53 AM 21.0 °F 12.4 °F 17.1 °F 85% 30.03 in 9.0 mi NNW 6.9 mph - N/A   Overcast
7:12 AM 21.2 °F 13.6 °F 17.6 °F 86% 29.99 in 9.0 mi NNW 5.8 mph - N/A   Overcast
7:53 AM 21.9 °F 15.7 °F 18.0 °F 85% 30.03 in 8.0 mi NNW 4.6 mph - N/A   Overcast
8:36 AM 23.0 °F 18.4 °F 19.4 °F 86% 30.00 in 2.5 mi NW 3.5 mph - 0.00 in Snow Light Snow
8:45 AM 23.0 °F 17.0 °F 19.4 °F 86% 30.00 in 1.8 mi NW 4.6 mph - 0.00 in Snow Light Snow
8:53 AM 23.0 °F 17.0 °F 19.9 °F 88% 30.04 in 1.8 mi NNW 4.6 mph - 0.00 in Snow Light Snow
9:13 AM 23.0 °F 17.0 °F 19.4 °F 86% 30.00 in 1.0 mi NNW 4.6 mph - 0.00 in Snow Light Snow
9:24 AM 24.8 °F 17.9 °F 19.4 °F 80% 30.01 in 1.0 mi NW 5.8 mph - 0.00 in Snow Light Snow
9:34 AM 24.8 °F 16.9 °F 19.4 °F 80% 30.01 in 0.8 mi NNW 6.9 mph - 0.00 in Snow Light Snow
9:45 AM 24.8 °F 16.1 °F 19.4 °F 80% 30.01 in 1.0 mi NW 8.1 mph - 0.00 in Snow Light Snow
9:51 AM 24.8 °F 17.9 °F 21.2 °F 86% 30.01 in 1.2 mi NNW 5.8 mph - 0.00 in Snow Light Snow
9:53 AM 24.1 °F 17.0 °F 21.0 °F 88% 30.05 in 1.2 mi NNW 5.8 mph - 0.00 in Snow Light Snow
10:11 AM 24.8 °F 16.1 °F 21.2 °F 86% 30.01 in 2.5 mi NNW 8.1 mph - 0.00 in Snow Light Snow
10:21 AM 24.8 °F 17.9 °F 21.2 °F 86% 30.01 in 4.0 mi NNW 5.8 mph - 0.00 in Snow Light Snow
10:30 AM 26.6 °F 17.5 °F 19.4 °F 74% 30.01 in 5.0 mi NNW 9.2 mph - 0.00 in Snow Light Snow
10:53 AM 25.0 °F 15.5 °F 19.9 °F 81% 30.04 in 3.0 mi NNW 9.2 mph - 0.00 in Snow Light Snow
11:02 AM 24.8 °F 16.9 °F 21.2 °F 86% 30.01 in 2.0 mi NNW 6.9 mph - 0.00 in Snow Light Snow
11:16 AM 24.8 °F 13.4 °F 19.4 °F 80% 30.01 in 1.8 mi NNW 12.7 mph - 0.00 in Snow Light Snow
11:53 AM 25.0 °F 13.6 °F 19.0 °F 78% 30.03 in 2.0 mi NNW 12.7 mph - 0.00 in Snow Light Snow
12:05 PM 24.8 °F 14.0 °F 19.4 °F 80% 30.00 in 3.0 mi NNW 11.5 mph - 0.00 in Snow Light Snow
12:53 PM 25.0 °F 14.2 °F 18.0 °F 75% 30.01 in 10.0 mi North 11.5 mph 20.7 mph 0.00 in   Overcast
1:53 PM 25.0 °F 13.1 °F 18.0 °F 75% 29.99 in 9.0 mi North 13.8 mph 20.7 mph 0.00 in   Overcast
2:53 PM 24.1 °F 12.5 °F 17.1 °F 75% 29.99 in 10.0 mi North 12.7 mph - N/A   Overcast
3:53 PM 24.1 °F 10.1 °F 15.1 °F 69% 30.00 in 10.0 mi North 18.4 mph 25.3 mph N/A   Overcast
4:53 PM 23.0 °F 9.2 °F 15.1 °F 72% 30.01 in 9.0 mi North 17.3 mph 28.8 mph N/A   Overcast
5:53 PM 24.1 °F 11.0 °F 16.0 °F 71% 30.01 in 10.0 mi North 16.1 mph 24.2 mph N/A   Overcast
6:53 PM 24.1 °F 12.0 °F 16.0 °F 71% 30.02 in 10.0 mi North 13.8 mph - N/A   Overcast
7:53 PM 24.1 °F 13.7 °F 17.1 °F 75% 30.03 in 10.0 mi North 10.4 mph - N/A   Overcast
8:53 PM 25.0 °F 12.2 °F 17.1 °F 72% 30.02 in 10.0 mi North 16.1 mph 23.0 mph N/A   Overcast
9:53 PM 26.1 °F 13.1 °F 18.0 °F 71% 30.02 in 10.0 mi North 17.3 mph 26.5 mph N/A   Overcast
10:53 PM 26.1 °F 13.6 °F 19.0 °F 75% 30.03 in 10.0 mi NNW 16.1 mph - N/A   Overcast
11:53 PM 25.0 °F 12.6 °F 18.0 °F 75% 30.04 in 10.0 mi NNW 15.0 mph - N/A   Overcast